Time,TemperatureF,DewpointF,PressureIn,WindDirection,WindDirectionDegrees,WindSpeedMPH,WindSpeedGustMPH,Humidity,HourlyPrecipIn,Conditions,Clouds,dailyrainin,SoftwareType,DateUTC
2013-04-27 00:01:00,50.5,40.7,30.30,South,179,5.0,5.0,69,0.00,,---,0.00,VWS V14.01,2013-04-27 04:01:00,
2013-04-27 00:06:00,50.4,40.6,30.30,SSE,167,2.0,5.0,69,0.00,,---,0.00,VWS V14.01,2013-04-27 04:06:00,
2013-04-27 00:11:00,50.5,40.7,30.30,South,175,2.0,5.0,69,0.00,,---,0.00,VWS V14.01,2013-04-27 04:11:00,
2013-04-27 00:16:00,50.6,40.8,30.30,South,175,4.0,5.0,69,0.00,,---,0.00,VWS V14.01,2013-04-27 04:16:00,
2013-04-27 00:21:00,50.6,40.8,30.31,South,170,4.0,7.0,69,0.00,,---,0.00,VWS V14.01,2013-04-27 04:21:00,
2013-04-27 00:26:00,50.6,41.2,30.30,South,171,5.0,6.0,70,0.00,,---,0.00,VWS V14.01,2013-04-27 04:26:00,
2013-04-27 00:31:00,50.6,41.2,30.31,South,175,4.0,5.0,70,0.00,,---,0.00,VWS V14.01,2013-04-27 04:31:00,
2013-04-27 00:36:00,50.5,41.1,30.31,South,175,5.0,6.0,70,0.00,,---,0.00,VWS V14.01,2013-04-27 04:36:00,
2013-04-27 00:41:00,50.5,40.7,30.31,SSE,162,5.0,6.0,69,0.00,,---,0.00,VWS V14.01,2013-04-27 04:41:00,
2013-04-27 00:46:00,50.5,40.7,30.31,South,182,4.0,6.0,69,0.00,,---,0.00,VWS V14.01,2013-04-27 04:46:00,
2013-04-27 00:51:00,50.8,40.6,30.31,South,181,5.0,11.0,68,0.00,,---,0.00,VWS V14.01,2013-04-27 04:51:00,
2013-04-27 00:56:00,51.1,40.5,30.31,South,182,7.0,10.0,67,0.00,,---,0.00,VWS V14.01,2013-04-27 04:56:00,
2013-04-27 01:01:00,51.4,40.8,30.31,South,186,5.0,10.0,67,0.00,,---,0.00,VWS V14.01,2013-04-27 05:01:00,
2013-04-27 01:06:00,51.6,40.6,30.31,South,191,8.0,9.0,66,0.00,,---,0.00,VWS V14.01,2013-04-27 05:06:00,
2013-04-27 01:11:00,51.7,40.7,30.31,South,183,7.0,9.0,66,0.00,,---,0.00,VWS V14.01,2013-04-27 05:11:00,
2013-04-27 01:16:00,51.7,40.7,30.31,South,186,2.0,7.0,66,0.00,,---,0.00,VWS V14.01,2013-04-27 05:16:00,
2013-04-27 01:21:00,51.7,40.7,30.31,South,188,6.0,9.0,66,0.00,,---,0.00,VWS V14.01,2013-04-27 05:21:00,
2013-04-27 01:26:00,51.7,40.7,30.31,SSW,194,5.0,9.0,66,0.00,,---,0.00,VWS V14.01,2013-04-27 05:26:00,
2013-04-27 01:31:00,51.7,40.7,30.31,South,190,6.0,10.0,66,0.00,,---,0.00,VWS V14.01,2013-04-27 05:31:00,
2013-04-27 01:36:00,51.7,40.7,30.31,South,176,6.0,8.0,66,0.00,,---,0.00,VWS V14.01,2013-04-27 05:36:00,
2013-04-27 01:41:00,51.7,40.7,30.31,SSW,192,4.0,7.0,66,0.00,,---,0.00,VWS V14.01,2013-04-27 05:41:00,
2013-04-27 01:46:00,51.7,40.7,30.31,South,177,5.0,8.0,66,0.00,,---,0.00,VWS V14.01,2013-04-27 05:46:00,
2013-04-27 01:51:00,51.7,40.7,30.31,SSW,192,5.0,10.0,66,0.00,,---,0.00,VWS V14.01,2013-04-27 05:51:00,
2013-04-27 01:56:00,51.6,40.6,30.31,SSW,194,3.0,7.0,66,0.00,,---,0.00,VWS V14.01,2013-04-27 05:56:00,
2013-04-27 02:01:00,51.5,40.5,30.31,South,186,7.0,7.0,66,0.00,,---,0.00,VWS V14.01,2013-04-27 06:01:00,
2013-04-27 02:06:00,51.4,40.4,30.31,SSW,207,4.0,9.0,66,0.00,,---,0.00,VWS V14.01,2013-04-27 06:06:00,
2013-04-27 02:11:00,51.3,40.3,30.31,SSW,198,3.0,6.0,66,0.00,,---,0.00,VWS V14.01,2013-04-27 06:11:00,
2013-04-27 02:16:00,51.2,40.2,30.32,SSW,205,2.0,5.0,66,0.00,,---,0.00,VWS V14.01,2013-04-27 06:16:00,
2013-04-27 02:21:00,51.2,40.2,30.31,SSW,205,3.0,4.0,66,0.00,,---,0.00,VWS V14.01,2013-04-27 06:21:00,
2013-04-27 02:26:00,51.0,40.4,30.32,SSW,200,3.0,5.0,67,0.00,,---,0.00,VWS V14.01,2013-04-27 06:26:00,
2013-04-27 02:31:00,51.0,40.4,30.31,SSW,199,3.0,5.0,67,0.00,,---,0.00,VWS V14.01,2013-04-27 06:31:00,
2013-04-27 02:36:00,50.9,40.7,30.31,SSW,212,1.0,3.0,68,0.00,,---,0.00,VWS V14.01,2013-04-27 06:36:00,
2013-04-27 02:41:00,50.7,40.2,30.31,SSW,212,3.0,3.0,67,0.00,,---,0.00,VWS V14.01,2013-04-27 06:41:00,
2013-04-27 02:46:00,50.5,40.3,30.30,SW,223,2.0,4.0,68,0.00,,---,0.00,VWS V14.01,2013-04-27 06:46:00,
2013-04-27 02:51:00,50.3,40.2,30.30,SW,223,1.0,5.0,68,0.00,,---,0.00,VWS V14.01,2013-04-27 06:51:00,
2013-04-27 02:56:00,50.1,40.0,30.30,SW,223,2.0,4.0,68,0.00,,---,0.00,VWS V14.01,2013-04-27 06:56:00,
2013-04-27 03:01:00,49.9,39.8,30.30,SW,223,3.0,5.0,68,0.00,,---,0.00,VWS V14.01,2013-04-27 07:01:00,
2013-04-27 03:06:00,49.8,40.0,30.30,SW,217,3.0,7.0,69,0.00,,---,0.00,VWS V14.01,2013-04-27 07:06:00,
2013-04-27 03:11:00,49.6,39.9,30.31,SW,217,2.0,3.0,69,0.00,,---,0.00,VWS V14.01,2013-04-27 07:11:00,
2013-04-27 03:16:00,49.5,39.8,30.30,SW,218,0.0,3.0,69,0.00,,---,0.00,VWS V14.01,2013-04-27 07:16:00,
2013-04-27 03:21:00,49.4,39.7,30.30,SW,218,0.0,3.0,69,0.00,,---,0.00,VWS V14.01,2013-04-27 07:21:00,
2013-04-27 03:26:00,49.3,39.9,30.30,SW,218,3.0,3.0,70,0.00,,---,0.00,VWS V14.01,2013-04-27 07:26:00,
2013-04-27 03:31:00,49.2,39.8,30.30,SW,218,2.0,3.0,70,0.00,,---,0.00,VWS V14.01,2013-04-27 07:31:00,
2013-04-27 03:36:00,49.1,39.8,30.29,SW,215,2.0,3.0,70,0.00,,---,0.00,VWS V14.01,2013-04-27 07:36:00,
2013-04-27 03:41:00,49.1,39.8,30.29,SW,215,2.0,4.0,70,0.00,,---,0.00,VWS V14.01,2013-04-27 07:41:00,
2013-04-27 03:46:00,49.1,39.8,30.29,SSW,207,1.0,6.0,70,0.00,,---,0.00,VWS V14.01,2013-04-27 07:46:00,
2013-04-27 03:51:00,49.1,39.8,30.30,SSW,207,1.0,3.0,70,0.00,,---,0.00,VWS V14.01,2013-04-27 07:51:00,
2013-04-27 03:56:00,49.2,39.8,30.29,SSW,205,3.0,4.0,70,0.00,,---,0.00,VWS V14.01,2013-04-27 07:56:00,
2013-04-27 04:01:00,49.2,39.8,30.29,SSW,200,2.0,4.0,70,0.00,,---,0.00,VWS V14.01,2013-04-27 08:01:00,
2013-04-27 04:06:00,49.2,39.8,30.29,SSW,200,2.0,3.0,70,0.00,,---,0.00,VWS V14.01,2013-04-27 08:06:00,
2013-04-27 04:11:00,49.1,39.8,30.29,South,173,4.0,4.0,70,0.00,,---,0.00,VWS V14.01,2013-04-27 08:11:00,
2013-04-27 04:16:00,49.0,39.7,30.29,South,173,4.0,5.0,70,0.00,,---,0.00,VWS V14.01,2013-04-27 08:16:00,
2013-04-27 04:21:00,48.9,39.6,30.29,South,173,4.0,4.0,70,0.00,,---,0.00,VWS V14.01,2013-04-27 08:21:00,
2013-04-27 04:26:00,48.7,39.4,30.29,South,173,5.0,5.0,70,0.00,,---,0.00,VWS V14.01,2013-04-27 08:26:00,
2013-04-27 04:31:00,48.6,39.6,30.29,South,173,5.0,5.0,71,0.00,,---,0.00,VWS V14.01,2013-04-27 08:31:00,
2013-04-27 04:36:00,48.4,39.4,30.29,South,173,2.0,5.0,71,0.00,,---,0.00,VWS V14.01,2013-04-27 08:36:00,
2013-04-27 04:41:00,48.3,39.3,30.29,South,173,4.0,5.0,71,0.00,,---,0.00,VWS V14.01,2013-04-27 08:41:00,
2013-04-27 04:46:00,48.2,39.2,30.29,South,173,4.0,5.0,71,0.00,,---,0.00,VWS V14.01,2013-04-27 08:46:00,
2013-04-27 04:51:00,48.1,39.2,30.29,South,173,4.0,5.0,71,0.00,,---,0.00,VWS V14.01,2013-04-27 08:51:00,
2013-04-27 04:56:00,48.0,39.1,30.29,South,173,1.0,4.0,71,0.00,,---,0.00,VWS V14.01,2013-04-27 08:56:00,
2013-04-27 05:01:00,47.9,39.3,30.29,South,173,1.0,4.0,72,0.00,,---,0.00,VWS V14.01,2013-04-27 09:01:00,
2013-04-27 05:06:00,47.9,39.3,30.29,South,173,1.0,2.0,72,0.00,,---,0.00,VWS V14.01,2013-04-27 09:06:00,
2013-04-27 05:11:00,47.8,39.2,30.29,South,173,2.0,4.0,72,0.00,,---,0.00,VWS V14.01,2013-04-27 09:11:00,
2013-04-27 05:16:00,47.8,39.2,30.29,South,173,1.0,2.0,72,0.00,,---,0.00,VWS V14.01,2013-04-27 09:16:00,
2013-04-27 05:21:00,47.8,39.2,30.28,South,173,0.0,0.0,72,0.00,,---,0.00,VWS V14.01,2013-04-27 09:21:00,
2013-04-27 05:26:00,47.7,39.1,30.28,South,173,0.0,0.0,72,0.00,,---,0.00,VWS V14.01,2013-04-27 09:26:00,
2013-04-27 05:31:00,47.5,38.9,30.28,South,173,0.0,0.0,72,0.00,,---,0.00,VWS V14.01,2013-04-27 09:31:00,
2013-04-27 05:36:00,47.4,39.2,30.28,South,173,0.0,0.0,73,0.00,,---,0.00,VWS V14.01,2013-04-27 09:36:00,
2013-04-27 05:41:00,47.1,38.9,30.28,South,173,0.0,0.0,73,0.00,,---,0.00,VWS V14.01,2013-04-27 09:41:00,
2013-04-27 05:46:00,46.9,39.1,30.28,South,173,0.0,0.0,74,0.00,,---,0.00,VWS V14.01,2013-04-27 09:46:00,
2013-04-27 05:51:00,46.7,38.9,30.28,South,173,0.0,0.0,74,0.00,,---,0.00,VWS V14.01,2013-04-27 09:51:00,
2013-04-27 05:56:00,46.4,38.6,30.28,South,173,0.0,0.0,74,0.00,,---,0.00,VWS V14.01,2013-04-27 09:56:00,
2013-04-27 06:01:00,46.2,38.7,30.28,South,173,0.0,0.0,75,0.00,,---,0.00,VWS V14.01,2013-04-27 10:01:00,
2013-04-27 06:06:00,46.0,38.9,30.28,South,173,0.0,0.0,76,0.00,,---,0.00,VWS V14.01,2013-04-27 10:06:00,
2013-04-27 06:11:00,45.8,39.0,30.28,South,173,0.0,0.0,77,0.00,,---,0.00,VWS V14.01,2013-04-27 10:11:00,
2013-04-27 06:16:00,45.5,38.7,30.28,South,173,0.0,0.0,77,0.00,,---,0.00,VWS V14.01,2013-04-27 10:16:00,
2013-04-27 06:21:00,45.3,38.9,30.28,South,173,0.0,0.0,78,0.00,,---,0.00,VWS V14.01,2013-04-27 10:21:00,
2013-04-27 06:26:00,45.1,38.7,30.28,South,173,0.0,0.0,78,0.00,,---,0.00,VWS V14.01,2013-04-27 10:26:00,
2013-04-27 06:31:00,45.0,38.6,30.28,South,173,0.0,0.0,78,0.00,,---,0.00,VWS V14.01,2013-04-27 10:31:00,
2013-04-27 06:36:00,44.9,38.8,30.28,SSE,161,0.0,0.0,79,0.00,,---,0.00,VWS V14.01,2013-04-27 10:36:00,
2013-04-27 06:41:00,44.7,38.3,30.28,ENE,63,0.0,0.0,78,0.00,,---,0.00,VWS V14.01,2013-04-27 10:41:00,
2013-04-27 06:46:00,44.6,38.2,30.28,ENE,63,0.0,0.0,78,0.00,,---,0.00,VWS V14.01,2013-04-27 10:46:00,
2013-04-27 06:51:00,44.4,38.3,30.28,West,267,1.0,3.0,79,0.00,,---,0.00,VWS V14.01,2013-04-27 10:51:00,
2013-04-27 06:56:00,44.2,38.1,30.29,WNW,293,1.0,2.0,79,0.00,,---,0.00,VWS V14.01,2013-04-27 10:56:00,
2013-04-27 07:01:00,44.1,38.0,30.29,WNW,293,0.0,2.0,79,0.00,,---,0.00,VWS V14.01,2013-04-27 11:01:00,
2013-04-27 07:06:00,44.0,38.2,30.29,WSW,253,0.0,0.0,80,0.00,,---,0.00,VWS V14.01,2013-04-27 11:06:00,
2013-04-27 07:11:00,43.9,38.5,30.28,NW,310,0.0,0.0,81,0.00,,---,0.00,VWS V14.01,2013-04-27 11:11:00,
2013-04-27 07:16:00,43.8,38.4,30.29,NNW,336,0.0,2.0,81,0.00,,---,0.00,VWS V14.01,2013-04-27 11:16:00,
2013-04-27 07:21:00,43.8,38.4,30.29,ESE,111,0.0,0.0,81,0.00,,---,0.00,VWS V14.01,2013-04-27 11:21:00,
2013-04-27 07:26:00,43.8,38.4,30.29,ESE,111,2.0,4.0,81,0.00,,---,0.00,VWS V14.01,2013-04-27 11:26:00,
2013-04-27 07:31:00,44.0,38.5,30.29,ESE,111,0.0,4.0,81,0.00,,---,0.00,VWS V14.01,2013-04-27 11:31:00,
2013-04-27 07:36:00,44.1,39.3,30.29,ESE,111,2.0,4.0,83,0.00,,---,0.00,VWS V14.01,2013-04-27 11:36:00,
2013-04-27 07:41:00,44.2,39.4,30.29,South,184,0.0,3.0,83,0.00,,---,0.00,VWS V14.01,2013-04-27 11:41:00,
2013-04-27 07:46:00,44.5,40.0,30.29,SE,146,0.0,1.0,84,0.00,,---,0.00,VWS V14.01,2013-04-27 11:46:00,
2013-04-27 07:51:00,44.8,40.6,30.29,SE,146,0.0,0.0,85,0.00,,---,0.00,VWS V14.01,2013-04-27 11:51:00,
2013-04-27 07:56:00,45.1,40.9,30.29,East,84,0.0,1.0,85,0.00,,---,0.00,VWS V14.01,2013-04-27 11:56:00,
2013-04-27 08:01:00,45.6,41.0,30.29,East,101,1.0,4.0,84,0.00,,---,0.00,VWS V14.01,2013-04-27 12:01:00,
2013-04-27 08:06:00,46.0,41.4,30.29,SSE,150,2.0,5.0,84,0.00,,---,0.00,VWS V14.01,2013-04-27 12:06:00,
2013-04-27 08:11:00,46.6,41.1,30.29,SSE,155,5.0,6.0,81,0.00,,---,0.00,VWS V14.01,2013-04-27 12:11:00,
2013-04-27 08:16:00,47.3,41.5,30.29,SSE,163,4.0,6.0,80,0.00,,---,0.00,VWS V14.01,2013-04-27 12:16:00,
2013-04-27 08:21:00,47.9,41.7,30.30,SSE,162,2.0,6.0,79,0.00,,---,0.00,VWS V14.01,2013-04-27 12:21:00,
2013-04-27 08:26:00,48.5,41.6,30.30,South,173,5.0,6.0,77,0.00,,---,0.00,VWS V14.01,2013-04-27 12:26:00,
2013-04-27 08:31:00,49.1,42.2,30.30,South,179,5.0,6.0,77,0.00,,---,0.00,VWS V14.01,2013-04-27 12:31:00,
2013-04-27 08:36:00,49.6,42.0,30.30,SSE,155,7.0,7.0,75,0.00,,---,0.00,VWS V14.01,2013-04-27 12:36:00,
2013-04-27 08:41:00,50.1,42.5,30.30,South,175,4.0,4.0,75,0.00,,---,0.00,VWS V14.01,2013-04-27 12:41:00,
2013-04-27 08:46:00,50.6,42.3,30.30,South,188,3.0,6.0,73,0.00,,---,0.00,VWS V14.01,2013-04-27 12:46:00,
2013-04-27 08:51:00,51.2,42.5,30.29,SW,218,3.0,6.0,72,0.00,,---,0.00,VWS V14.01,2013-04-27 12:51:00,
2013-04-27 08:56:00,51.7,42.6,30.29,South,177,6.0,9.0,71,0.00,,---,0.00,VWS V14.01,2013-04-27 12:56:00,
2013-04-27 09:01:00,52.2,43.1,30.29,South,174,4.0,7.0,71,0.00,,---,0.00,VWS V14.01,2013-04-27 13:01:00,
2013-04-27 09:06:00,52.7,43.2,30.29,South,171,2.0,7.0,70,0.00,,---,0.00,VWS V14.01,2013-04-27 13:06:00,
2013-04-27 09:11:00,53.1,43.2,30.28,SSE,157,4.0,7.0,69,0.00,,---,0.00,VWS V14.01,2013-04-27 13:11:00,
2013-04-27 09:16:00,53.4,43.1,30.28,SE,135,6.0,8.0,68,0.00,,---,0.00,VWS V14.01,2013-04-27 13:16:00,
2013-04-27 09:21:00,53.7,43.0,30.28,South,172,5.0,9.0,67,0.00,,---,0.00,VWS V14.01,2013-04-27 13:21:00,
2013-04-27 09:26:00,54.1,43.8,30.28,SSE,151,5.0,6.0,68,0.00,,---,0.00,VWS V14.01,2013-04-27 13:26:00,
2013-04-27 09:31:00,54.5,43.8,30.28,SSE,165,5.0,7.0,67,0.00,,---,0.00,VWS V14.01,2013-04-27 13:31:00,
2013-04-27 09:36:00,54.8,44.1,30.28,SSE,160,7.0,7.0,67,0.00,,---,0.00,VWS V14.01,2013-04-27 13:36:00,
2013-04-27 09:41:00,55.1,44.0,30.28,South,185,2.0,9.0,66,0.00,,---,0.00,VWS V14.01,2013-04-27 13:41:00,
2013-04-27 09:48:00,55.7,44.5,30.27,SSE,148,2.0,7.0,66,0.00,,---,0.00,VWS V14.01,2013-04-27 13:48:00,
2013-04-27 09:53:00,56.1,45.7,30.27,South,188,5.0,6.0,68,0.00,,---,0.00,VWS V14.01,2013-04-27 13:53:00,
2013-04-27 09:58:00,56.5,45.3,30.27,South,170,2.0,7.0,66,0.00,,---,0.00,VWS V14.01,2013-04-27 13:58:00,
2013-04-27 10:03:00,57.0,45.4,30.27,SSE,165,4.0,8.0,65,0.00,,---,0.00,VWS V14.01,2013-04-27 14:03:00,
2013-04-27 10:08:00,57.3,46.0,30.27,SSE,156,4.0,7.0,66,0.00,,---,0.00,VWS V14.01,2013-04-27 14:08:00,
2013-04-27 10:13:00,57.8,46.9,30.27,South,182,3.0,7.0,67,0.00,,---,0.00,VWS V14.01,2013-04-27 14:13:00,
2013-04-27 10:18:00,58.3,47.0,30.27,West,266,0.0,7.0,66,0.00,,---,0.00,VWS V14.01,2013-04-27 14:18:00,
2013-04-27 10:23:00,58.9,47.2,30.27,SE,145,4.0,8.0,65,0.00,,---,0.00,VWS V14.01,2013-04-27 14:23:00,
2013-04-27 10:28:00,59.3,46.7,30.27,SSE,152,6.0,7.0,63,0.00,,---,0.00,VWS V14.01,2013-04-27 14:28:00,
2013-04-27 10:33:00,59.5,46.9,30.27,SW,215,0.0,7.0,63,0.00,,---,0.00,VWS V14.01,2013-04-27 14:33:00,
2013-04-27 10:38:00,59.7,46.7,30.26,SSE,157,2.0,9.0,62,0.00,,---,0.00,VWS V14.01,2013-04-27 14:38:00,
2013-04-27 10:43:00,60.0,47.0,30.26,SSE,153,10.0,10.0,62,0.00,,---,0.00,VWS V14.01,2013-04-27 14:43:00,
2013-04-27 10:48:00,60.1,48.3,30.26,South,171,2.0,10.0,65,0.00,,---,0.00,VWS V14.01,2013-04-27 14:48:00,
2013-04-27 10:53:00,60.4,46.5,30.26,South,169,6.0,7.0,60,0.00,,---,0.00,VWS V14.01,2013-04-27 14:53:00,
2013-04-27 10:58:00,60.7,46.3,30.26,South,170,6.0,12.0,59,0.00,,---,0.00,VWS V14.01,2013-04-27 14:58:00,
2013-04-27 11:03:00,61.0,47.5,30.26,SSE,162,5.0,9.0,61,0.00,,---,0.00,VWS V14.01,2013-04-27 15:03:00,
2013-04-27 11:08:00,61.2,47.2,30.25,SSE,162,2.0,9.0,60,0.00,,---,0.00,VWS V14.01,2013-04-27 15:08:00,
2013-04-27 11:13:00,61.5,47.5,30.25,South,178,6.0,10.0,60,0.00,,---,0.00,VWS V14.01,2013-04-27 15:13:00,
2013-04-27 11:18:00,61.8,46.4,30.25,SSE,157,7.0,10.0,57,0.00,,---,0.00,VWS V14.01,2013-04-27 15:18:00,
2013-04-27 11:23:00,62.0,46.6,30.25,SE,144,10.0,13.0,57,0.00,,---,0.00,VWS V14.01,2013-04-27 15:23:00,
2013-04-27 11:28:00,62.1,46.7,30.25,SE,132,12.0,16.0,57,0.00,,---,0.00,VWS V14.01,2013-04-27 15:28:00,
2013-04-27 11:33:00,62.2,45.8,30.25,SE,136,8.0,12.0,55,0.00,,---,0.00,VWS V14.01,2013-04-27 15:33:00,
2013-04-27 11:38:00,62.4,44.6,30.25,SSW,207,6.0,10.0,52,0.00,,---,0.00,VWS V14.01,2013-04-27 15:38:00,
2013-04-27 11:43:00,62.6,44.2,30.24,SE,125,5.0,13.0,51,0.00,,---,0.00,VWS V14.01,2013-04-27 15:43:00,
2013-04-27 11:48:00,63.0,45.6,30.24,SE,136,4.0,14.0,53,0.00,,---,0.00,VWS V14.01,2013-04-27 15:48:00,
2013-04-27 11:53:00,63.3,43.8,30.24,South,169,8.0,14.0,49,0.00,,---,0.00,VWS V14.01,2013-04-27 15:53:00,
2013-04-27 11:58:00,63.4,44.5,30.24,SSE,154,12.0,16.0,50,0.00,,---,0.00,VWS V14.01,2013-04-27 15:58:00,
2013-04-27 12:03:00,63.6,44.1,30.24,SE,141,10.0,15.0,49,0.00,,---,0.00,VWS V14.01,2013-04-27 16:03:00,
2013-04-27 12:08:00,63.6,42.5,30.24,SSE,154,8.0,17.0,46,0.00,,---,0.00,VWS V14.01,2013-04-27 16:08:00,
2013-04-27 12:13:00,63.6,43.6,30.24,South,171,7.0,15.0,48,0.00,,---,0.00,VWS V14.01,2013-04-27 16:13:00,
2013-04-27 12:18:00,63.9,43.8,30.24,SSE,164,10.0,14.0,48,0.00,,---,0.00,VWS V14.01,2013-04-27 16:18:00,
2013-04-27 12:23:00,64.1,42.3,30.24,SSE,153,13.0,15.0,45,0.00,,---,0.00,VWS V14.01,2013-04-27 16:23:00,
2013-04-27 12:28:00,64.2,43.0,30.23,SSE,161,9.0,14.0,46,0.00,,---,0.00,VWS V14.01,2013-04-27 16:28:00,
2013-04-27 12:33:00,64.5,44.4,30.23,SE,140,7.0,13.0,48,0.00,,---,0.00,VWS V14.01,2013-04-27 16:33:00,
2013-04-27 12:38:00,64.7,42.9,30.23,SSE,159,12.0,14.0,45,0.00,,---,0.00,VWS V14.01,2013-04-27 16:38:00,
2013-04-27 12:43:00,64.9,43.1,30.23,SSE,161,8.0,14.0,45,0.00,,---,0.00,VWS V14.01,2013-04-27 16:43:00,
2013-04-27 12:48:00,65.0,42.0,30.23,SSE,154,7.0,14.0,43,0.00,,---,0.00,VWS V14.01,2013-04-27 16:48:00,
2013-04-27 12:53:00,65.1,42.7,30.23,ESE,108,8.0,13.0,44,0.00,,---,0.00,VWS V14.01,2013-04-27 16:53:00,
2013-04-27 12:58:00,65.3,42.8,30.23,SE,138,10.0,15.0,44,0.00,,---,0.00,VWS V14.01,2013-04-27 16:58:00,
2013-04-27 13:03:00,65.5,41.2,30.23,SSE,167,8.0,12.0,41,0.00,,---,0.00,VWS V14.01,2013-04-27 17:03:00,
2013-04-27 13:08:00,65.6,42.5,30.22,South,169,11.0,12.0,43,0.00,,---,0.00,VWS V14.01,2013-04-27 17:08:00,
2013-04-27 13:13:00,65.7,42.6,30.22,SE,132,5.0,10.0,43,0.00,,---,0.00,VWS V14.01,2013-04-27 17:13:00,
2013-04-27 13:18:00,65.8,42.1,30.22,South,173,6.0,14.0,42,0.00,,---,0.00,VWS V14.01,2013-04-27 17:18:00,
2013-04-27 13:23:00,65.8,41.5,30.22,South,174,7.0,12.0,41,0.00,,---,0.00,VWS V14.01,2013-04-27 17:23:00,
2013-04-27 13:28:00,65.9,40.3,30.21,SW,215,6.0,10.0,39,0.00,,---,0.00,VWS V14.01,2013-04-27 17:28:00,
2013-04-27 13:33:00,66.1,43.0,30.21,SSE,154,11.0,12.0,43,0.00,,---,0.00,VWS V14.01,2013-04-27 17:33:00,
2013-04-27 13:38:00,66.2,41.2,30.21,SSE,166,6.0,11.0,40,0.00,,---,0.00,VWS V14.01,2013-04-27 17:38:00,
2013-04-27 13:43:00,66.3,43.2,30.21,SSW,210,5.0,13.0,43,0.00,,---,0.00,VWS V14.01,2013-04-27 17:43:00,
2013-04-27 13:48:00,66.4,42.0,30.21,South,179,4.0,10.0,41,0.00,,---,0.00,VWS V14.01,2013-04-27 17:48:00,
2013-04-27 13:53:00,66.9,43.7,30.21,South,171,7.0,11.0,43,0.00,,---,0.00,VWS V14.01,2013-04-27 17:53:00,
2013-04-27 13:58:00,67.1,45.1,30.20,South,182,10.0,11.0,45,0.00,,---,0.00,VWS V14.01,2013-04-27 17:58:00,
2013-04-27 14:03:00,67.2,42.7,30.20,South,185,8.0,13.0,41,0.00,,---,0.00,VWS V14.01,2013-04-27 18:03:00,
2013-04-27 14:08:00,67.2,42.7,30.20,South,184,7.0,13.0,41,0.00,,---,0.00,VWS V14.01,2013-04-27 18:08:00,
2013-04-27 14:13:00,67.2,42.7,30.20,SSE,163,6.0,12.0,41,0.00,,---,0.00,VWS V14.01,2013-04-27 18:13:00,
2013-04-27 14:18:00,67.1,44.5,30.20,South,177,4.0,11.0,44,0.00,,---,0.00,VWS V14.01,2013-04-27 18:18:00,
2013-04-27 14:23:00,67.4,42.3,30.20,South,170,5.0,14.0,40,0.00,,---,0.00,VWS V14.01,2013-04-27 18:23:00,
2013-04-27 14:28:00,67.3,43.5,30.19,SSE,148,2.0,9.0,42,0.00,,---,0.00,VWS V14.01,2013-04-27 18:28:00,
2013-04-27 14:33:00,67.5,43.6,30.19,SSW,193,5.0,13.0,42,0.00,,---,0.00,VWS V14.01,2013-04-27 18:33:00,
2013-04-27 14:38:00,67.6,42.4,30.19,SSE,147,9.0,14.0,40,0.00,,---,0.00,VWS V14.01,2013-04-27 18:38:00,
2013-04-27 14:43:00,67.6,43.1,30.19,SSE,157,8.0,14.0,41,0.00,,---,0.00,VWS V14.01,2013-04-27 18:43:00,
2013-04-27 14:48:00,67.7,41.2,30.19,ESE,117,6.0,12.0,38,0.00,,---,0.00,VWS V14.01,2013-04-27 18:48:00,
2013-04-27 14:53:00,67.9,44.6,30.19,ESE,123,8.0,17.0,43,0.00,,---,0.00,VWS V14.01,2013-04-27 18:53:00,
2013-04-27 14:58:00,67.9,42.1,30.19,SSW,204,7.0,12.0,39,0.00,,---,0.00,VWS V14.01,2013-04-27 18:58:00,
2013-04-27 15:03:00,68.1,43.5,30.18,SSW,204,7.0,11.0,41,0.00,,---,0.00,VWS V14.01,2013-04-27 19:03:00,
2013-04-27 15:08:00,68.4,43.2,30.18,South,169,9.0,14.0,40,0.00,,---,0.00,VWS V14.01,2013-04-27 19:08:00,
2013-04-27 15:13:00,68.5,44.5,30.18,SSE,164,8.0,14.0,42,0.00,,---,0.00,VWS V14.01,2013-04-27 19:13:00,
2013-04-27 15:18:00,68.3,41.7,30.18,SE,135,8.0,14.0,38,0.00,,---,0.00,VWS V14.01,2013-04-27 19:18:00,
2013-04-27 15:23:00,68.2,41.7,30.18,SSE,151,9.0,10.0,38,0.00,,---,0.00,VWS V14.01,2013-04-27 19:23:00,
2013-04-27 15:28:00,68.3,41.7,30.17,SE,146,9.0,14.0,38,0.00,,---,0.00,VWS V14.01,2013-04-27 19:28:00,
2013-04-27 15:33:00,68.5,42.6,30.17,South,181,8.0,13.0,39,0.00,,---,0.00,VWS V14.01,2013-04-27 19:33:00,
2013-04-27 15:38:00,68.5,41.2,30.17,SSW,200,10.0,14.0,37,0.00,,---,0.00,VWS V14.01,2013-04-27 19:38:00,
2013-04-27 15:43:00,68.6,42.7,30.17,SSE,155,9.0,13.0,39,0.00,,---,0.00,VWS V14.01,2013-04-27 19:43:00,
2013-04-27 15:48:00,68.7,41.4,30.16,SSW,194,6.0,14.0,37,0.00,,---,0.00,VWS V14.01,2013-04-27 19:48:00,
2013-04-27 15:53:00,68.9,41.6,30.16,South,175,7.0,12.0,37,0.00,,---,0.00,VWS V14.01,2013-04-27 19:53:00,
2013-04-27 15:58:00,69.1,41.8,30.15,SE,145,5.0,10.0,37,0.00,,---,0.00,VWS V14.01,2013-04-27 19:58:00,
2013-04-27 16:03:00,68.9,42.3,30.15,SE,134,4.0,13.0,38,0.00,,---,0.00,VWS V14.01,2013-04-27 20:03:00,
2013-04-27 16:08:00,69.0,41.7,30.15,SSE,159,10.0,12.0,37,0.00,,---,0.00,VWS V14.01,2013-04-27 20:08:00,
2013-04-27 16:13:00,69.0,40.2,30.15,SSE,165,9.0,10.0,35,0.00,,---,0.00,VWS V14.01,2013-04-27 20:13:00,
2013-04-27 16:18:00,69.2,40.4,30.15,SSE,161,6.0,12.0,35,0.00,,---,0.00,VWS V14.01,2013-04-27 20:18:00,
2013-04-27 16:23:00,69.3,40.5,30.14,SE,136,13.0,20.0,35,0.00,,---,0.00,VWS V14.01,2013-04-27 20:23:00,
2013-04-27 16:28:00,69.2,40.4,30.14,SSE,165,8.0,17.0,35,0.00,,---,0.00,VWS V14.01,2013-04-27 20:28:00,
2013-04-27 16:33:00,69.3,39.8,30.14,SE,144,10.0,20.0,34,0.00,,---,0.00,VWS V14.01,2013-04-27 20:33:00,
2013-04-27 16:38:00,69.2,40.4,30.14,SE,138,9.0,18.0,35,0.00,,---,0.00,VWS V14.01,2013-04-27 20:38:00,
2013-04-27 16:43:00,69.0,39.5,30.14,SSE,159,6.0,13.0,34,0.00,,---,0.00,VWS V14.01,2013-04-27 20:43:00,
2013-04-27 16:48:00,68.9,39.4,30.13,SE,129,7.0,12.0,34,0.00,,---,0.00,VWS V14.01,2013-04-27 20:48:00,
2013-04-27 16:53:00,68.9,38.6,30.13,SSE,150,0.0,9.0,33,0.00,,---,0.00,VWS V14.01,2013-04-27 20:53:00,
2013-04-27 16:58:00,69.2,39.7,30.12,SE,140,12.0,15.0,34,0.00,,---,0.00,VWS V14.01,2013-04-27 20:58:00,
2013-04-27 17:03:00,69.4,40.6,30.12,SSE,148,12.0,14.0,35,0.00,,---,0.00,VWS V14.01,2013-04-27 21:03:00,
2013-04-27 17:08:00,69.3,39.0,30.12,SE,143,8.0,13.0,33,0.00,,---,0.00,VWS V14.01,2013-04-27 21:08:00,
2013-04-27 17:13:00,69.3,39.8,30.12,SSE,150,7.0,12.0,34,0.00,,---,0.00,VWS V14.01,2013-04-27 21:13:00,
2013-04-27 17:18:00,69.3,39.0,30.12,SE,133,7.0,14.0,33,0.00,,---,0.00,VWS V14.01,2013-04-27 21:18:00,
2013-04-27 17:23:00,69.0,37.9,30.11,SSE,166,10.0,14.0,32,0.00,,---,0.00,VWS V14.01,2013-04-27 21:23:00,
2013-04-27 17:28:00,68.9,37.8,30.11,SSE,147,7.0,14.0,32,0.00,,---,0.00,VWS V14.01,2013-04-27 21:28:00,
2013-04-27 17:33:00,68.8,38.5,30.11,SE,132,6.0,12.0,33,0.00,,---,0.00,VWS V14.01,2013-04-27 21:33:00,
2013-04-27 17:38:00,68.8,38.5,30.11,SSE,148,8.0,9.0,33,0.00,,---,0.00,VWS V14.01,2013-04-27 21:38:00,
2013-04-27 17:43:00,68.9,38.6,30.11,SSE,163,6.0,6.0,33,0.00,,---,0.00,VWS V14.01,2013-04-27 21:43:00,
2013-04-27 17:48:00,69.0,38.7,30.11,South,171,6.0,6.0,33,0.00,,---,0.00,VWS V14.01,2013-04-27 21:48:00,
2013-04-27 17:53:00,69.2,40.4,30.11,South,178,10.0,10.0,35,0.00,,---,0.00,VWS V14.01,2013-04-27 21:53:00,
2013-04-27 17:58:00,69.1,38.0,30.10,SSE,165,6.0,7.0,32,0.00,,---,0.00,VWS V14.01,2013-04-27 21:58:00,
2013-04-27 18:03:00,68.9,39.4,30.10,ESE,118,12.0,12.0,34,0.00,,---,0.00,VWS V14.01,2013-04-27 22:03:00,
2013-04-27 18:08:00,68.9,38.6,30.10,SE,145,8.0,8.0,33,0.00,,---,0.00,VWS V14.01,2013-04-27 22:08:00,
2013-04-27 18:13:00,68.8,37.8,30.10,SSE,153,6.0,8.0,32,0.00,,---,0.00,VWS V14.01,2013-04-27 22:13:00,
2013-04-27 18:18:00,68.8,37.8,30.10,South,180,6.0,6.0,32,0.00,,---,0.00,VWS V14.01,2013-04-27 22:18:00,
2013-04-27 18:23:00,68.7,38.5,30.10,South,178,5.0,7.0,33,0.00,,---,0.00,VWS V14.01,2013-04-27 22:23:00,
2013-04-27 18:28:00,68.6,37.6,30.10,SSW,198,2.0,9.0,32,0.00,,---,0.00,VWS V14.01,2013-04-27 22:28:00,
2013-04-27 18:33:00,68.5,36.7,30.10,SSE,168,10.0,13.0,31,0.00,,---,0.00,VWS V14.01,2013-04-27 22:33:00,
2013-04-27 18:38:00,68.5,38.3,30.10,SE,144,9.0,11.0,33,0.00,,---,0.00,VWS V14.01,2013-04-27 22:38:00,
2013-04-27 18:43:00,68.4,36.6,30.10,SE,137,6.0,12.0,31,0.00,,---,0.00,VWS V14.01,2013-04-27 22:43:00,
2013-04-27 18:48:00,68.2,37.2,30.10,SE,135,10.0,12.0,32,0.00,,---,0.00,VWS V14.01,2013-04-27 22:48:00,
2013-04-27 18:53:00,68.1,38.7,30.10,SSE,153,7.0,13.0,34,0.00,,---,0.00,VWS V14.01,2013-04-27 22:53:00,
2013-04-27 18:58:00,68.0,37.8,30.10,SSE,159,7.0,10.0,33,0.00,,---,0.00,VWS V14.01,2013-04-27 22:58:00,
2013-04-27 19:03:00,67.9,37.8,30.09,SSE,157,4.0,9.0,33,0.00,,---,0.00,VWS V14.01,2013-04-27 23:03:00,
2013-04-27 19:08:00,67.9,39.3,30.09,SSE,159,8.0,10.0,35,0.00,,---,0.00,VWS V14.01,2013-04-27 23:08:00,
2013-04-27 19:13:00,67.9,40.0,30.09,SSE,154,7.0,11.0,36,0.00,,---,0.00,VWS V14.01,2013-04-27 23:13:00,
2013-04-27 19:18:00,67.8,39.2,30.09,SE,143,11.0,12.0,35,0.00,,---,0.00,VWS V14.01,2013-04-27 23:18:00,
2013-04-27 19:23:00,67.6,40.4,30.09,SE,145,7.0,11.0,37,0.00,,---,0.00,VWS V14.01,2013-04-27 23:23:00,
2013-04-27 19:28:00,67.5,38.9,30.09,SSE,161,6.0,11.0,35,0.00,,---,0.00,VWS V14.01,2013-04-27 23:28:00,
2013-04-27 19:33:00,67.3,40.2,30.09,SE,140,9.0,12.0,37,0.00,,---,0.00,VWS V14.01,2013-04-27 23:33:00,
2013-04-27 19:38:00,67.1,38.6,30.09,SSE,156,6.0,11.0,35,0.00,,---,0.00,VWS V14.01,2013-04-27 23:38:00,
2013-04-27 19:43:00,66.9,40.5,30.08,SSE,152,5.0,9.0,38,0.00,,---,0.00,VWS V14.01,2013-04-27 23:43:00,
2013-04-27 19:48:00,66.7,41.0,30.08,SE,126,6.0,7.0,39,0.00,,---,0.00,VWS V14.01,2013-04-27 23:48:00,
2013-04-27 19:53:00,66.5,40.8,30.08,SSE,151,2.0,7.0,39,0.00,,---,0.00,VWS V14.01,2013-04-27 23:53:00,
2013-04-27 19:58:00,66.3,40.6,30.08,SSE,153,7.0,8.0,39,0.00,,---,0.00,VWS V14.01,2013-04-27 23:58:00,
2013-04-27 20:03:00,65.8,40.2,30.08,SE,141,6.0,12.0,39,0.00,,---,0.00,VWS V14.01,2013-04-28 00:03:00,
2013-04-27 20:08:00,65.5,40.6,30.08,SE,146,7.0,9.0,40,0.00,,---,0.00,VWS V14.01,2013-04-28 00:08:00,
2013-04-27 20:13:00,65.1,41.5,30.08,SE,138,4.0,7.0,42,0.00,,---,0.00,VWS V14.01,2013-04-28 00:13:00,
2013-04-27 20:18:00,64.7,41.1,30.08,SE,130,5.0,7.0,42,0.00,,---,0.00,VWS V14.01,2013-04-28 00:18:00,
2013-04-27 20:23:00,64.4,41.4,30.08,SE,146,4.0,7.0,43,0.00,,---,0.00,VWS V14.01,2013-04-28 00:23:00,
2013-04-27 20:28:00,64.0,41.7,30.08,SE,146,4.0,5.0,44,0.00,,---,0.00,VWS V14.01,2013-04-28 00:28:00,
2013-04-27 20:33:00,63.7,41.4,30.08,SE,146,2.0,5.0,44,0.00,,---,0.00,VWS V14.01,2013-04-28 00:33:00,
2013-04-27 20:38:00,63.4,41.1,30.08,SE,146,0.0,4.0,44,0.00,,---,0.00,VWS V14.01,2013-04-28 00:38:00,
2013-04-27 20:43:00,63.1,40.9,30.08,SE,146,0.0,2.0,44,0.00,,---,0.00,VWS V14.01,2013-04-28 00:43:00,
2013-04-27 20:48:00,62.9,41.3,30.08,SE,146,0.0,4.0,45,0.00,,---,0.00,VWS V14.01,2013-04-28 00:48:00,
2013-04-27 20:53:00,62.6,41.5,30.07,SE,146,1.0,2.0,46,0.00,,---,0.00,VWS V14.01,2013-04-28 00:53:00,
2013-04-27 20:58:00,62.3,40.7,30.07,SE,146,2.0,2.0,45,0.00,,---,0.00,VWS V14.01,2013-04-28 00:58:00,
2013-04-27 21:03:00,62.0,40.4,30.07,SE,146,0.0,2.0,45,0.00,,---,0.00,VWS V14.01,2013-04-28 01:03:00,
2013-04-27 21:08:00,61.8,40.3,30.07,ESE,114,2.0,6.0,45,0.00,,---,0.00,VWS V14.01,2013-04-28 01:08:00,
2013-04-27 21:13:00,61.6,40.6,30.07,ESE,114,0.0,4.0,46,0.00,,---,0.00,VWS V14.01,2013-04-28 01:13:00,
2013-04-27 21:18:00,61.4,39.9,30.07,ESE,117,4.0,6.0,45,0.00,,---,0.00,VWS V14.01,2013-04-28 01:18:00,
2013-04-27 21:23:00,61.2,40.8,30.07,ESE,117,1.0,2.0,47,0.00,,---,0.00,VWS V14.01,2013-04-28 01:23:00,
2013-04-27 21:28:00,61.0,40.7,30.07,ESE,117,0.0,4.0,47,0.00,,---,0.00,VWS V14.01,2013-04-28 01:28:00,
2013-04-27 21:33:00,60.7,41.5,30.08,ESE,117,0.0,1.0,49,0.00,,---,0.00,VWS V14.01,2013-04-28 01:33:00,
2013-04-27 21:38:00,60.4,41.2,30.08,ESE,117,0.0,0.0,49,0.00,,---,0.00,VWS V14.01,2013-04-28 01:38:00,
2013-04-27 21:43:00,60.1,40.9,30.08,ESE,117,1.0,4.0,49,0.00,,---,0.00,VWS V14.01,2013-04-28 01:43:00,
2013-04-27 21:48:00,59.8,41.1,30.07,ESE,117,0.0,1.0,50,0.00,,---,0.00,VWS V14.01,2013-04-28 01:48:00,
2013-04-27 21:53:00,59.5,41.4,30.07,ESE,117,0.0,2.0,51,0.00,,---,0.00,VWS V14.01,2013-04-28 01:53:00,
2013-04-27 21:58:00,59.1,41.5,30.07,ESE,117,0.0,1.0,52,0.00,,---,0.00,VWS V14.01,2013-04-28 01:58:00,
2013-04-27 22:03:00,58.9,41.8,30.07,ESE,117,0.0,1.0,53,0.00,,---,0.00,VWS V14.01,2013-04-28 02:03:00,
2013-04-27 22:08:00,58.5,41.9,30.07,ESE,117,0.0,1.0,54,0.00,,---,0.00,VWS V14.01,2013-04-28 02:08:00,
2013-04-27 22:13:00,58.2,41.7,30.07,ESE,117,1.0,1.0,54,0.00,,---,0.00,VWS V14.01,2013-04-28 02:13:00,
2013-04-27 22:18:00,57.7,41.7,30.07,ESE,117,0.0,2.0,55,0.00,,---,0.00,VWS V14.01,2013-04-28 02:18:00,
2013-04-27 22:23:00,57.3,41.3,30.07,ESE,117,0.0,2.0,55,0.00,,---,0.00,VWS V14.01,2013-04-28 02:23:00,
2013-04-27 22:28:00,57.0,41.5,30.07,ESE,117,0.0,0.0,56,0.00,,---,0.00,VWS V14.01,2013-04-28 02:28:00,
2013-04-27 22:33:00,56.7,41.2,30.07,ESE,117,0.0,0.0,56,0.00,,---,0.00,VWS V14.01,2013-04-28 02:33:00,
2013-04-27 22:38:00,56.5,41.0,30.06,ESE,117,0.0,0.0,56,0.00,,---,0.00,VWS V14.01,2013-04-28 02:38:00,
2013-04-27 22:43:00,56.2,40.7,30.06,ESE,117,0.0,0.0,56,0.00,,---,0.00,VWS V14.01,2013-04-28 02:43:00,
2013-04-27 22:48:00,55.9,40.9,30.06,ESE,117,0.0,0.0,57,0.00,,---,0.00,VWS V14.01,2013-04-28 02:48:00,
2013-04-27 22:53:00,55.7,40.7,30.06,ESE,117,0.0,0.0,57,0.00,,---,0.00,VWS V14.01,2013-04-28 02:53:00,
2013-04-27 22:58:00,55.4,40.9,30.06,ESE,117,0.0,0.0,58,0.00,,---,0.00,VWS V14.01,2013-04-28 02:58:00,
2013-04-27 23:03:00,55.2,41.1,30.06,ESE,117,0.0,0.0,59,0.00,,---,0.00,VWS V14.01,2013-04-28 03:03:00,
2013-04-27 23:08:00,55.0,41.0,30.06,ESE,117,0.0,0.0,59,0.00,,---,0.00,VWS V14.01,2013-04-28 03:08:00,
2013-04-27 23:13:00,54.8,41.2,30.06,ESE,117,0.0,0.0,60,0.00,,---,0.00,VWS V14.01,2013-04-28 03:13:00,
2013-04-27 23:18:00,54.6,41.0,30.05,ESE,117,0.0,0.0,60,0.00,,---,0.00,VWS V14.01,2013-04-28 03:18:00,
2013-04-27 23:23:00,54.4,40.8,30.05,ESE,117,0.0,0.0,60,0.00,,---,0.00,VWS V14.01,2013-04-28 03:23:00,
2013-04-27 23:28:00,54.3,41.2,30.05,ESE,117,0.0,0.0,61,0.00,,---,0.00,VWS V14.01,2013-04-28 03:28:00,
2013-04-27 23:33:00,54.2,41.1,30.05,ESE,117,0.0,0.0,61,0.00,,---,0.00,VWS V14.01,2013-04-28 03:33:00,
2013-04-27 23:38:00,54.0,40.9,30.05,ESE,117,0.0,0.0,61,0.00,,---,0.00,VWS V14.01,2013-04-28 03:38:00,
2013-04-27 23:43:00,54.0,40.9,30.05,ESE,117,0.0,0.0,61,0.00,,---,0.00,VWS V14.01,2013-04-28 03:43:00,
2013-04-27 23:48:00,53.9,41.2,30.05,ESE,117,0.0,0.0,62,0.00,,---,0.00,VWS V14.01,2013-04-28 03:48:00,
2013-04-27 23:53:00,53.7,41.4,30.05,ESE,117,0.0,0.0,63,0.00,,---,0.00,VWS V14.01,2013-04-28 03:53:00,
2013-04-27 23:58:00,53.6,41.3,30.05,ESE,117,0.0,0.0,63,0.00,,---,0.00,VWS V14.01,2013-04-28 03:58:00,